Flag for Germany Weather past 2 weeks in Osnabrück, Lower Saxony, Germany

Now
66 °F

Partly sunny.


Feels Like: 66 °F
Forecast: 53 / 66 °F
Wind: 8 mph from Southwest

Location: Muenster / Osnabrueck

Current Time: Sep 30, 2014 at 5:55:00 PM

Latest Report: Sep 30, 2014 at 5:20 PM


Visibility: N/A

Pressure: 30.24 "Hg

Humidity: 68%

Dew point: 55 °F

Location of OsnabrückLocation

Historic Weather in Osnabrück — Graph

°F

Osnabrück temperature yesterday

Maximum temperature yesterday: 73 °F (at 1:50 PM)
Minimum temperature yesterday: 52 °F (at 1:50 AM)
Average temperature yesterday: 62 °F

Past Weeks' High & Low Weather Summary

 TemperatureHumidityPressure
High79 °F (Sep 18, 2:20 PM)100% (Sep 16, 3:20 AM)30.39 "Hg (Sep 16, 3:20 AM)
Low41 °F (Sep 23, 5:50 AM)45% (Sep 22, 5:20 PM)29.80 "Hg (Sep 24, 4:20 PM)
Average60 °F84%30.05 "Hg
* Reported Sep 15 4:20 PM — Sep 30 4:50 PM, Osnabrück, Weather by CustomWeather, © 2014

Note: Actual official high and low records may vary slightly from our data, if they occured in-between our weather recording intervals... More about our weather records

Advertising

Osnabrück weather history for previous 24 hours

 ConditionsComfort  
Time TempWeatherWind HumidityBarometerVisibility
4:50 PM
Sep 30
66 °FPartly sunny.9 mph68%30.24 "HgN/A
4:20 PM66 °FScattered clouds.9 mph68%30.24 "HgN/A
3:50 PM68 °FScattered clouds.12 mph64%30.24 "HgN/A
3:20 PM68 °FScattered clouds.13 mph64%30.24 "HgN/A
2:50 PM66 °FScattered clouds.10 mph73%30.24 "HgN/A
2:20 PM66 °FScattered clouds.10 mph73%30.24 "HgN/A
1:50 PM66 °FBroken clouds.10 mph73%30.24 "HgN/A
1:20 PM64 °FBroken clouds.9 mph78%30.24 "HgN/A
12:50 PM66 °FPartly sunny.10 mph73%30.24 "HgN/A
12:20 PM64 °FBroken clouds.9 mph83%30.24 "HgN/A
11:50 AM64 °FPartly sunny.6 mph83%30.24 "Hg6 mi
11:20 AM63 °FBroken clouds.7 mph88%30.24 "Hg6 mi
10:50 AM63 °FBroken clouds.7 mph88%30.24 "Hg6 mi
10:20 AM63 °FPartly sunny.6 mph88%30.24 "Hg4 mi
9:50 AM61 °FFog.6 mph94%30.24 "Hg3 mi
9:20 AM61 °FFog.7 mph100%30.21 "Hg2 mi
8:50 AM61 °FFog.5 mph100%30.21 "Hg2 mi
8:20 AM61 °FFog.5 mph100%30.21 "Hg2 mi
7:50 AM61 °FFog.6 mph100%30.21 "Hg2 mi
7:20 AM59 °FFog.6 mph100%30.21 "Hg2 mi
6:50 AM59 °FFog.6 mph100%30.21 "Hg2 mi
6:20 AM59 °FFog.5 mph100%30.18 "Hg1 mi
5:50 AM59 °FFog.3 mph100%30.18 "Hg1 mi
5:20 AM59 °FFog.3 mph100%30.18 "Hg1 mi
4:50 AM59 °FFog.3 mph100%30.18 "Hg1 mi
4:20 AM59 °FFog.3 mph100%30.18 "Hg2 mi
3:50 AM59 °FFog.3 mph100%30.18 "Hg2 mi
3:20 AM61 °FFog.3 mph100%30.18 "Hg2 mi
2:50 AM61 °FFog.5 mph100%30.18 "Hg2 mi
2:20 AM59 °FFog.2 mph100%30.18 "Hg1 mi
1:50 AM61 °FFog.3 mph100%30.18 "Hg1 mi
1:20 AM61 °FFog.5 mph100%30.18 "Hg2 mi
12:50 AM61 °FFog.2 mph100%30.18 "Hg2 mi
12:20 AM61 °FFog.3 mph100%30.18 "Hg2 mi
11:50 PM
Sep 29
61 °FFog.3 mph100%30.18 "Hg2 mi
11:20 PM61 °FLight rain. Fog.5 mph100%30.21 "Hg2 mi
10:50 PM61 °FDrizzle. Fog.3 mph100%30.21 "Hg2 mi
10:20 PM61 °FLight rain. Fog.3 mph100%30.21 "Hg2 mi
9:50 PM61 °FLight rain. Fog.5 mph100%30.21 "Hg2 mi
9:20 PM63 °FLight rain. Fog.2 mph100%30.21 "Hg3 mi
8:50 PM63 °FLight rain. Fog.5 mph94%30.21 "Hg3 mi
8:20 PM63 °FLight rain. Partly cloudy.7 mph100%30.21 "Hg3 mi
7:50 PM64 °FLight rain. Broken clouds.7 mph94%30.18 "Hg4 mi
7:20 PM68 °FLight rain. Broken clouds.9 mph78%30.18 "Hg6 mi
6:50 PM68 °FLight rain. Partly sunny.8 mph78%30.18 "HgN/A
6:20 PM70 °FLight rain. Broken clouds.8 mph69%30.18 "HgN/A
5:50 PM70 °FSunny.7 mph69%30.18 "Hg10 mi
5:20 PM72 °FSunny.8 mph65%30.15 "Hg10 mi
Weather by CustomWeather, © 2014

See weather overviewHow to use our weather pages